Starlink 32593

operational
NORAD ID: 61974 Int'l Des: 2024-210 Owner: SPXS Country: US Constellation: starlink
LEOCIRCULAR

Starlink 32593について

説明を読み込み中...

リアルタイム位置

3D地球を読み込み中...

次回通過

高度履歴

Altitude vs Time

uPlot chart will show altitude changes over time

軌道要素

1 61974U 24210R 25258.24772628 .00054188 00000-0 19610-2 0 9991
2 61974 43.0050 91.0357 0001995 267.2117 92.8507 15.27634520 48048
Epoch: Sep 15, 2025 • Age: 13 hours

現在のステータス

高度 482.6 km
速度 7.63 km/s
衛星直下点 18.27°N, 35.15°W
打ち上げ日 Nov 14, 2024
運用期間 0.8 years
タイプ internet

技術仕様

分類 Payload
質量 730.00 kg
乾燥質量 700.00 kg
総質量 730.00 kg
長さ 0.30 m
直径 4.10 m
スパン 29.00 m
形状 Box + pan
製造者 SPXS
バスタイプ Starlink V2M
フェーズステータス In Orbit
所有者/国 SPXS/US

大規模コンステレーション

Loading constellations...